This is the latest recevied weather packets stored in our database for station/object EA3ABN-1. If no packets are shown the sender has not sent any weather packets the latest 10 day(s).
| Time | Temp. | Humidity | Pressure | Rain* | Wind** | Luminosity | Snow |
|---|---|---|---|---|---|---|---|
| 1777727090 | 27.78° C | 33% | 1018.5 hPa | - | - | - | - |
| 1777726790 | 27.78° C | 33% | 1018.6 hPa | - | - | - | - |
| 1777724390 | 27.22° C | 33% | 1018.8 hPa | - | - | - | - |
| 1777723506 | 26.67° C | 33% | 1018.9 hPa | - | - | - | - |
| 1777721690 | 25.56° C | 33% | 1019.3 hPa | - | - | - | - |
| 1777721090 | 25.56° C | 33% | 1019.4 hPa | - | - | - | - |
| 1777720190 | 25° C | 33% | 1019.4 hPa | - | - | - | - |
| 1777719590 | 25° C | 33% | 1019.6 hPa | - | - | - | - |
| 1777719290 | 25° C | 32% | 1019.6 hPa | - | - | - | - |
| 1777718390 | 25° C | 32% | 1020 hPa | - | - | - | - |
| 1777717490 | 24.44° C | 32% | 1020.3 hPa | - | - | - | - |
| 1777716022 | 24.44° C | 32% | 1020.3 hPa | - | - | - | - |
| 1777713290 | 23.89° C | 33% | 1020.7 hPa | - | - | - | - |
| 1777710590 | 23.33° C | 32% | 1020.7 hPa | - | - | - | - |
| 1777706989 | 23.33° C | 32% | 1020.7 hPa | - | - | - | - |
| 1777702189 | 22.78° C | 32% | 1020.6 hPa | - | - | - | - |
| 1777701890 | 22.78° C | 32% | 1020.7 hPa | - | - | - | - |
| 1777700389 | 22.78° C | 32% | 1020.6 hPa | - | - | - | - |
| 1777699489 | 22.78° C | 32% | 1020.5 hPa | - | - | - | - |
| 1777697989 | 22.78° C | 32% | 1020.4 hPa | - | - | - | - |
| 1777695290 | 22.78° C | 32% | 1020.3 hPa | - | - | - | - |
| 1777694689 | 22.78° C | 32% | 1020.2 hPa | - | - | - | - |
| 1777694089 | 23.33° C | 32% | 1020.3 hPa | - | - | - | - |
| 1777693789 | 23.33° C | 32% | 1020.3 hPa | - | - | - | - |
| 1777693189 | 23.33° C | 32% | 1020.3 hPa | - | - | - | - |
* Rain since midnight (hover to see other rain measurements)
** Current wind speed in m/s (hover to see current wind gust speed)